Location: The Saddle
(36.8333°N, 80.3417°W)
Time: 01:53:20
(UTC-05:00)

AO-7 - Pass Details

Date: 15 December 2023
Orbit: 1440 x 1458 km, 102.0° (Epoch: 01 March)

Event Time Altitude Azimuth Distance (km) Brightness Sun altitude
Rises 05:08:40 0° 21° (NNE) 4,542 ? -26.8°
Reaches altitude 10° 05:11:31 10° 25° (NNE) 3,562 ? -26.2°
Maximum altitude 05:19:41 58° 104° (ESE) 1,648 ? -24.6°
Drops below altitude 10° 05:27:49 10° 182° (S) 3,557 ? -23.0°
Sets 05:30:39 0° 186° (S) 4,535 ? -22.5°
